Retour au catalogue

LEMUR-2 DELOITTE-3

ActifScienceSSO
NORAD 68471·PAYLOAD·🇺🇸 United States

Lancé Mar 30, 2026 depuis Vandenberg Space Force Base

Loading…

Prochains Passages (prochaines 24 heures)

TLE

FraisSource: Space-Track

Époque: Sep 14, 2026, 08:20 UTC

1 68471U 26067BH  26257.34751464  .00003265  00000-0  32596-3 0  9997
2 68471  97.7666 214.1698 0005356 104.7226 255.4587 14.92190148 25025

Suivez LEMUR-2 DELOITTE-3 en temps réel avec AllMySat

Download on the App Store